COSMOS 1255

导读

COSMOS 1255(宇宙1255)是苏联(归属独联体CIS)于1981年3月6日发射的军用卫星,属于冷战时期苏联“宇宙”系列航天器。作为当时空间侦察体系的一部分,它承担电子侦察、战略情报收集任务,用于监听外军雷达信号与通信信息,运行于近地轨道,任务完成后再入大气层销毁,是苏联空间军事化应用的典型代表,体现了当时苏联在航天侦察领域的技术水平。

基本信息
目录编号:
12325
目录名称:
COSMOS 1255
国际标识:
1981-022F
轨道中心:
EARTH
卫星名称:
COSMOS 1255
卫星全名:
--
卫星状态:
在轨 (已飞行16537 天)
发射日期:
1981-03-06 UTC
国别 :
俄罗斯(独联体) (CIS)
星等 :
--
轨道信息
数据来源 国际轨道数据 AOE轨道数据
星历时间 2026-06-15T00:28:26+0800
15小时前
查看轨道信息
2026-06-15T06:00:00+0800
9小时前
查看轨道信息
半长轴 7836.4km 7836.399km
偏心率 0.0016997 0.0017073
轨道倾角 74.030° 74.031°
近地点辐角 32.451° 32.558°
升交点赤经 274.467° 274.159°
平近点角 35.819° 352.744°
近地点 1444.943km 1444.882km
远地点 1471.583km 1471.642km
周期 115.063分钟 115.063分钟
每日圈数 12.514915 12.514917
详细信息
使用方式:
暂无
2D轨道图
3D轨道图
轨道高度分析图
轨道倾角分析图
轨道综合分析图
查看轨道综合分析图